CAPE
677 680 720 913 806 389 346 393 357 189 115 24 63 64 375 458 67 436 354 259 451 1236 1759 1657 1993 2058 1897 1807 1785 1858 1826 1739 1604 1691 1574 1629 1716 1889 1840 1522 1397 1367 1578
632 593 265 563 748 488 370 259 41 128 90 23 124 57 285 627 697 622 338 185 693 1635 1895 1768 2014 2292 1898 1475 1315 1436 1821 2126 2095 1684 1616 1579 1657 1501 1306 1090 1100 1039 1478
488 339 26 17 146 503 221 129 115 129 105 82 88 122 249 733 591 510 400 301 403 1667 1481 1534 2016 2628 2479 1613 1402 1701 2148 2209 1967 1891 1722 1712 1530 1435 1325 1078 936 1059 1255
301 56 74 372 618 225 211 271 241 222 147 135 168 272 563 513 390 642 661 558 686 544 1420 1598 2088 2487 1785 1564 1702 2214 1915 2080 2016 1758 1720 1615 1385 1349 1385 1319 1210 1143 1210
325 33 264 462 645 534 240 286 316 346 241 287 289 361 176 643 729 489 1119 728 464 712 922 934 1922 2359 1807 1454 2172 2514 2468 2413 2279 2247 2106 1957 1664 1566 1755 1465 1303 1242 1184
193 0 163 565 533 421 432 390 371 476 393 327 335 504 361 600 783 321 167 541 607 671 546 532 677 1045 2081 1837 2170 2312 2351 2546 2533 2396 2232 2039 1894 1902 1873 1676 1524 1391 1370
376 47 304 496 554 523 427 532 671 551 434 341 177 32 256 325 396 282 18 261 629 689 623 932 1034 969 1201 2113 2151 2457 2413 2379 2413 2373 2395 2155 2011 2011 1966 1890 1803 1635 1548
326 122 287 365 545 535 301 674 716 637 419 286 374 74 4 1 13 39 103 21 144 678 945 908 1087 1138 1311 1437 1570 2150 2464 2663 2347 2611 2503 2360 2173 2046 2034 1907 1697 1611 1621
320 182 420 604 418 446 342 471 680 802 571 482 435 338 83 119 42 105 82 119 136 515 754 752 1030 1172 1100 1249 1289 1531 2127 1906 2493 2492 2574 2588 2465 2297 2222 1913 1644 1562 1542
452 283 103 556 311 367 615 547 894 600 365 665 548 576 545 346 483 558 188 171 188 315 421 984 708 1126 1208 1172 1068 1026 1222 1465 1964 2350 2567 2992 2891 2771 2419 2110 1856 1609 1490
411 294 494 399 406 429 510 807 590 481 559 416 323 806 492 392 326 360 139 79 244 320 243 304 530 568 657 1394 1493 1237 1205 1079 1088 1703 2323 2554 2725 3072 2451 1999 1802 1777 1429
503 484 441 750 797 697 497 563 593 537 478 538 540 799 781 788 597 256 134 110 125 225 402 509 464 608 583 1039 1124 1355 1245 1326 1239 1069 1290 1689 2228 2680 2533 2167 1939 1705 1564
437 507 445 419 535 655 786 711 447 245 258 187 631 657 572 511 433 395 278 272 287 80 233 228 737 992 729 871 1190 1482 1821 1692 1411 1231 1005 1005 1200 1596 2136 2497 2443 2149 1754
383 440 467 509 516 589 638 801 777 703 375 271 360 535 480 415 717 597 580 500 447 73 112 235 201 762 1050 1360 1680 1320 1389 496 433 844 1177 965 738 651 934 1395 1700 1807 1877
453 403 522 592 538 571 722 849 766 886 670 502 542 380 251 338 706 784 807 608 736 542 186 165 519 505 519 497 747 585 1017 768 662 782 756 947 896 598 558 505 802 1235 1364
583 542 470 560 611 622 704 589 718 869 685 676 524 541 507 658 677 920 868 890 675 536 585 180 839 514 1005 814 902 748 556 497 546 410 402 560 527 582 723 838 669 549 747
665 637 648 661 645 613 771 526 513 466 586 620 613 755 800 780 900 767 835 674 832 738 880 732 374 850 797 906 916 722 617 826 927 891 841 794 594 486 677 841 827 649 532
647 720 709 775 687 643 495 468 444 488 404 664 757 759 770 733 757 775 761 707 1036 807 752 1199 598 796 860 853 888 804 904 989 1400 826 552 490 446 396 561 612 787 772 766
759 739 709 712 709 704 610 544 673 450 450 656 892 818 1022 670 926 730 869 912 1017 993 893 864 805 560 555 653 869 812 846 831 627 460 407 162 90 59 83 124 185 123 153
1412 1107 988 825 682 665 703 666 533 541 511 632 746 844 863 644 665 822 814 1018 741 799 861 987 840 763 770 874 845 938 1250 897 785 606 320 250 147 71 17 0 12 30 58
1647 1494 1304 1113 897 794 1160 786 674 744 766 766 812 859 933 882 679 710 1008 1150 709 600 667 916 865 864 978 1018 938 1152 845 910 721 388 268 39 0 0 0 0 0 0 0
1805 1806 1632 1371 1163 1445 1231 858 927 927 1018 1063 1082 980 1034 947 887 894 657 844 1081 874 1004 1045 1379 1222 1586 951 1021 885 938 745 560 374 189 27 0 0 0 0 0 0 0
1778 1764 1889 1642 1522 1380 1352 1268 1011 1011 1046 1045 1015 993 889 1039 1096 1410 1049 1149 1434 1390 1201 1601 1460 1338 1441 1305 913 768 864 710 546 328 165 22 0 0 0 0 0 0 0
1818 1667 1804 1846 1724 1588 1397 1398 1226 1127 966 1037 1121 1172 1255 1391 1367 1385 1530 1396 1306 1261 1105 1499 1279 1433 1175 963 853 964 767 678 395 166 17 0 0 0 0 1 0 0 0
1793 1782 1708 1834 1746 1695 1588 1411 1461 1145 963 1006 1031 1100 1197 1194 1068 1060 1208 1366 1359 1269 960 1191 1158 1267 1032 882 1081 849 753 417 208 47 0 0 0 0 0 0 0 0 0
1663 1708 1714 1793 1673 1774 1667 1422 1540 1339 1151 1147 1169 1152 1126 1108 1341 1469 1249 1096 996 1197 976 1124 1076 1090 869 970 881 854 496 250 105 7 0 1 0 0 0 0 0 0 0
CIN
-43 -28 -25 -101 -77 -83 -126 -117 -102 -116 -134 -200 -175 -163 -140 -151 -133 -168 -116 -158 -106 -25 -1 0 0 -1 0 0 0 0 0 0 -3 -1 -1 -3 -4 -3 -2 -4 -6 -6 -1
-33 -39 -54 -95 -73 -50 -162 -191 -169 -175 -99 -233 -166 -196 -147 -119 -132 -160 -142 -202 -117 -38 -13 -1 0 0 0 0 -2 0 0 0 0 0 -4 -4 -2 -2 -2 -4 -2 -3 0
-24 -50 -54 -70 -112 -70 -227 -53 -82 -48 -163 -176 -197 -157 -143 -86 -121 -159 -184 -208 -157 -42 -45 -19 -1 0 0 0 0 0 0 0 0 0 -1 0 -3 -1 -1 -2 -3 0 -1
-48 -86 -81 -53 -47 -50 -231 -61 -36 -54 -132 -196 -189 -162 -112 -120 -151 -129 -153 -167 -145 -120 -59 -31 -6 0 -2 -1 0 0 -2 -1 -1 -3 -1 0 0 0 0 0 0 0 0
-25 -113 -63 -50 -42 -27 -56 -71 -64 -41 -70 -150 -169 -170 -206 -126 -120 -163 -114 -157 -190 -157 -132 -113 -23 -2 -3 -3 0 0 0 0 -1 0 0 0 0 0 0 0 0 -1 -1
-48 0 -171 -42 -24 -46 -37 -82 -46 -31 -64 -135 -151 -137 -165 -157 -128 -205 -158 -173 -180 -175 -186 -89 -140 -84 -16 -9 0 -1 0 0 0 0 0 0 0 0 0 0 0 0 0
-32 -66 -69 -52 -16 -42 -30 -30 -37 -49 -90 -141 -166 -81 -90 -165 -192 -214 -291 -235 -192 -184 -187 -145 -125 -122 -86 -21 -12 -2 0 -1 0 0 0 0 0 0 0 0 0 0 0
-20 -60 -119 -49 -46 -45 -61 -40 -65 -46 -77 -62 -118 -67 -14 -5 -126 -134 -291 -104 -137 -212 -168 -160 -134 -120 -101 -81 -61 -27 -5 -1 -2 0 0 0 0 0 0 0 0 0 0
-8 -14 -68 -28 -33 -20 -20 -16 -45 -29 -91 -37 -52 -35 -63 -117 -77 -147 -129 -170 -174 -234 -208 -196 -164 -151 -163 -140 -114 -74 -32 -35 -3 0 -1 0 0 0 0 0 0 0 0
-17 -9 -193 -45 -24 -149 -15 -144 -30 -24 -18 -107 -59 -48 -46 -36 -103 -60 -145 -215 -26 -30 -171 -199 -190 -172 -180 -175 -168 -159 -127 -84 -41 -11 -1 0 0 0 0 0 0 0 0
-27 -13 -132 -137 -68 -155 -55 -128 -24 -17 -36 -143 -155 -121 -58 -55 -82 -132 -78 -64 -33 -44 -56 -270 -224 -78 -177 -173 -166 -110 -42 -146 -131 -65 -22 -6 0 0 0 -1 -7 0 0
-43 -20 -10 -41 -103 -58 -141 -46 -31 -19 -12 -140 -139 -122 -113 -106 -126 -56 -105 -41 -50 -42 -82 -240 -252 -276 -137 -234 -198 -180 -125 -43 -48 -91 -112 -66 -26 -2 0 0 -6 -1 0
-41 -38 -22 -10 -41 -73 -75 -12 -21 -34 -25 -114 -127 -114 -135 -132 -74 -56 -46 -56 -68 -33 -74 -44 -96 -248 -267 -256 -195 -178 -139 -86 -76 -68 -132 -131 -111 -59 -15 -1 0 0 -1
-44 -49 -56 -39 -25 -131 -116 -107 -24 -13 -24 -25 -136 -52 -94 -58 -53 -137 -102 -87 -73 -27 -36 -139 -51 -72 -85 -185 -156 -178 -53 -30 -73 -175 -119 -79 -94 -135 -111 -57 -17 -6 -2
-19 -29 -157 -145 -57 -140 -120 -101 -53 -25 -16 -111 -37 -36 -128 -64 -118 -27 -35 -39 -77 -45 -75 -133 -140 -151 -235 -68 -188 -192 -179 -189 -195 -131 -137 -142 -93 -107 -30 -140 -101 -39 -14
-30 -161 -163 -143 -134 -137 -122 -45 -37 -22 -24 -30 -33 -30 -52 -94 -15 -15 -21 -88 -38 -52 -49 -8 -116 -81 -143 -142 -153 -148 -47 -45 -52 -55 -165 -78 -42 -39 -29 -22 -24 -21 -100
-17 -27 -163 -61 -52 -116 -107 -50 -28 -30 -27 -68 -67 -84 -87 -14 -60 -79 -20 -70 -79 -29 -78 -74 -42 -145 -144 -133 -109 -151 -178 -158 -166 -51 -53 -71 -62 -51 -40 -24 -29 -31 -30
-11 -24 -71 -55 -60 -40 -35 -38 -43 -24 -24 -58 -70 -66 -70 -8 -86 -19 -8 -80 -71 -69 -83 -65 -117 -101 -111 -113 -122 -141 -103 -80 -70 -137 -40 -32 -32 -40 -29 -31 -18 -30 -23
-21 -15 -18 -51 -60 -52 -32 -33 -80 -73 -39 -32 -61 -65 -61 -21 -71 -34 -79 -68 -59 -61 -26 -25 -68 -39 -122 -56 -102 -129 -96 -104 -126 -88 -74 -100 -110 -209 -183 -147 -125 -131 -105
-20 -8 -22 -25 -50 -128 -25 -10 -31 -82 -76 -72 -74 -68 -76 -25 -86 -76 -70 -64 -81 -72 -36 -19 -16 -23 -51 -95 -31 -54 -64 -38 -44 -46 -57 -64 -52 -56 -70 0 -51 -55 -63
-96 -41 -16 -28 -41 -53 -20 -17 -87 -73 -66 -64 -76 -68 -69 -33 -27 -33 -57 -56 -26 -83 -52 -17 -18 -19 -63 -76 -81 -66 -86 -86 -76 -80 -169 -209 0 0 0 0 0 0 0
-132 -87 -37 -19 -47 -29 -34 -46 -33 -73 -67 -57 -57 -69 -72 -25 -23 -20 -52 -35 -22 -29 -49 -17 -24 -42 -38 -33 -21 -52 -61 -66 -91 -83 -131 -191 0 0 0 0 0 0 0
-132 -155 -85 -47 -24 -51 -44 -31 -55 -84 -77 -82 -84 -85 -89 -58 -20 -51 -45 -26 -14 -13 -21 -27 -28 -54 -48 -64 -33 -68 -39 -42 -55 -62 -75 -188 0 0 0 0 0 0 0
-138 -152 -148 -83 -42 -54 -53 -42 -25 -16 -37 -57 -55 -55 -50 -42 -47 -45 -37 -38 -47 -57 -26 -10 -15 -59 -70 -38 -44 -38 -48 -43 -85 -94 -161 0 0 0 0 0 0 0 0
-155 -161 -197 -117 -58 -48 -48 -37 -9 -18 -48 -36 -29 -18 -12 -29 -15 -11 -20 -26 -31 -48 -23 -23 -22 -14 -18 -45 -43 -64 -68 -92 -136 -178 0 0 0 0 0 0 0 0 0
-104 -90 -171 -150 -75 -36 -35 -58 -19 -19 -47 -69 -54 -31 -35 -43 -16 -6 -7 -6 -37 -70 -41 -9 -18 -14 -60 -28 -33 -35 -70 -121 -147 -100 0 0 0 0 0 0 0 0 0
Wind_Speed
9 6 11 11 18 20 14 12 14 17 16 nan nan nan 13 11 nan 10 10 14 18 23 24 22 21 19 16 16 17 17 18 19 18 16 16 17 14 10 9 9 9 9 9
9 8 10 14 19 16 21 15 nan 15 nan nan 12 nan 14 13 13 12 10 12 17 19 19 20 18 18 17 16 16 17 19 19 19 19 17 14 12 11 10 10 11 11 9
10 10 nan nan 17 15 20 24 18 18 18 nan nan 17 16 15 14 14 13 12 13 14 16 17 16 15 16 16 16 18 19 20 20 19 16 14 12 11 11 12 12 11 10
7 nan nan 9 9 10 13 15 15 16 17 21 17 11 10 11 12 10 12 13 13 13 15 19 16 16 18 18 20 19 20 19 18 17 16 14 14 13 13 12 11 10 10
3 nan 4 6 7 11 9 9 15 13 13 14 12 12 12 12 10 8 7 8 9 10 11 15 17 17 21 24 24 24 21 19 18 17 16 15 14 14 14 13 13 11 9
2 nan 3 2 3 6 4 6 10 13 12 10 15 17 13 12 10 7 5 5 5 7 8 10 10 12 17 22 23 23 24 23 21 20 18 16 15 14 13 12 13 12 11
6 nan 3 3 1 1 4 4 4 6 11 6 10 nan 8 11 11 7 nan 8 7 6 7 8 7 8 9 16 18 19 20 20 19 20 21 20 17 15 13 11 10 10 10
9 9 8 6 5 5 3 4 2 1 5 3 4 nan nan nan nan nan 4 nan 4 1 4 6 8 8 9 9 12 13 15 15 17 17 17 16 15 15 15 13 11 10 8
8 9 9 11 10 9 7 5 5 4 2 1 3 1 nan 2 nan 2 nan 4 1 2 1 4 6 8 10 8 9 10 11 11 12 14 14 14 13 13 12 11 11 11 10
14 12 10 12 12 14 12 12 10 9 9 5 3 4 2 2 2 4 4 1 1 2 5 6 8 7 7 6 10 10 9 8 8 10 10 9 11 12 12 11 9 8 8
14 15 13 12 14 16 17 16 16 12 13 10 7 7 7 7 5 6 8 nan 5 7 5 3 4 6 6 7 7 8 11 9 7 6 7 7 6 11 12 11 10 10 9
18 16 15 17 19 17 18 19 20 16 15 13 11 10 10 10 7 8 11 9 8 7 9 8 5 4 5 7 7 9 11 14 13 8 5 8 8 8 8 7 8 10 10
20 19 17 16 16 16 16 17 21 22 18 16 15 13 12 10 10 10 11 9 9 nan 11 11 9 8 8 9 9 9 11 14 14 8 8 10 9 9 10 10 9 9 11
21 21 17 18 17 16 17 20 22 22 22 19 15 13 15 13 12 10 9 12 12 nan 13 12 12 12 10 10 9 10 11 10 12 7 7 10 12 12 12 12 12 12 11
16 18 18 16 18 17 18 20 21 21 23 22 19 16 16 15 12 11 12 12 16 14 13 14 13 12 9 8 10 10 8 5 5 9 10 13 14 15 14 14 16 18 14
18 19 19 17 19 12 16 22 22 24 24 24 22 19 18 17 13 13 14 14 15 16 14 13 14 12 10 6 7 8 7 5 6 7 9 11 14 17 19 19 23 26 23
20 21 22 21 16 11 17 18 23 24 26 25 23 20 18 17 16 14 14 13 14 16 13 11 11 11 10 8 7 9 8 6 6 5 5 7 12 16 18 21 22 23 23
12 16 19 20 20 17 16 19 20 22 27 27 21 19 17 17 17 14 12 11 13 14 14 9 12 12 8 10 9 9 9 8 7 9 10 10 11 12 16 19 22 23 24
12 14 13 14 17 23 20 16 16 15 13 12 15 16 15 15 15 14 11 13 13 13 14 12 13 15 12 10 11 11 10 10 13 12 11 15 nan nan nan 21 25 26 24
16 17 14 11 15 21 20 16 14 13 13 11 13 17 16 18 11 12 13 14 11 12 14 13 14 12 11 9 11 10 9 13 15 16 17 19 18 nan nan nan nan nan nan
19 20 17 13 12 17 21 19 17 15 15 14 16 17 18 20 14 14 15 14 13 13 15 15 13 13 12 10 9 13 14 13 17 19 21 nan nan nan nan nan nan nan nan
23 23 21 18 13 16 20 22 19 17 16 14 15 17 18 19 16 12 10 10 13 14 14 16 15 13 11 12 14 14 16 17 18 23 21 nan nan nan nan nan nan nan nan
25 21 24 25 19 16 18 20 17 15 13 14 14 15 17 16 17 14 10 7 8 10 9 13 12 13 14 15 16 15 16 16 16 20 20 nan nan nan nan nan nan nan nan
29 26 26 28 25 17 17 18 19 15 13 16 17 18 19 19 18 16 14 13 14 14 13 14 12 14 15 19 17 17 19 19 20 20 nan nan nan nan nan nan nan nan nan
36 38 34 32 28 22 17 20 23 19 16 14 16 15 17 19 20 20 17 14 16 15 18 16 18 20 22 21 24 26 24 23 20 nan nan nan nan nan nan nan nan nan nan
45 49 45 38 34 31 23 27 21 21 19 18 18 17 16 18 20 22 18 19 18 19 22 20 21 22 25 26 29 27 29 25 28 nan nan nan nan nan nan nan nan nan nan
Wind_Direction
71 83 66 41 48 44 67 70 57 87 107 nan nan nan 91 87 nan 83 85 56 63 67 56 50 55 56 58 58 61 63 67 74 76 78 79 90 99 103 112 110 106 102 95
79 62 65 63 60 44 44 73 nan 72 nan nan 131 nan 114 106 91 85 84 80 71 64 52 54 55 53 53 57 67 69 71 72 77 80 80 86 99 106 103 96 91 93 87
90 83 nan nan 70 52 56 83 83 81 76 nan nan 111 114 109 96 88 71 72 75 63 54 57 64 71 71 70 70 71 70 67 67 71 78 82 87 91 95 99 100 101 101
82 nan nan 60 47 57 61 80 81 81 93 93 116 120 125 110 110 100 63 63 69 73 70 70 70 73 70 69 70 71 71 67 64 67 64 70 78 81 76 75 76 82 87
96 nan 63 67 34 51 82 82 92 92 92 91 81 126 118 110 118 112 88 73 66 69 76 74 75 72 71 69 65 62 63 63 59 55 56 57 61 65 69 71 72 74 75
169 nan 134 80 22 9 47 72 91 89 93 98 80 129 105 107 96 88 76 80 87 73 66 67 70 65 57 64 68 66 59 59 57 56 59 57 56 59 64 66 67 66 59
244 nan 221 238 214 345 359 19 87 88 95 95 108 nan 125 119 88 82 nan 82 79 72 59 59 55 55 58 53 53 56 58 51 49 55 54 56 59 62 62 61 64 69 72
230 228 233 242 240 241 275 288 357 36 108 82 103 nan nan nan nan nan 74 nan 51 3 44 43 52 41 32 34 40 42 47 48 50 49 52 45 47 54 58 55 60 61 61
249 244 231 239 245 241 246 241 259 278 277 153 81 114 nan 100 nan 236 nan 31 106 254 345 34 31 29 14 14 30 42 45 33 34 42 37 36 34 42 45 47 48 50 56
254 250 239 233 241 245 245 250 244 253 249 257 275 296 334 306 257 240 263 270 346 2 36 21 8 12 9 3 25 22 23 34 33 39 34 27 24 25 28 33 37 36 34
251 251 239 226 231 239 240 246 248 249 247 246 248 264 278 278 277 267 266 nan 291 297 306 357 345 348 345 338 336 342 359 359 349 22 15 18 24 21 27 23 17 12 22
242 239 242 235 237 235 239 243 247 240 240 246 247 244 267 268 266 258 263 274 295 294 283 286 300 306 316 312 330 346 339 329 310 312 346 352 350 351 12 19 13 1 358
242 245 246 248 245 246 246 246 247 246 238 239 240 241 244 265 263 250 258 263 265 nan 286 281 272 268 293 309 329 349 340 355 4 292 326 330 334 339 333 340 346 353 347
252 254 263 258 261 270 272 265 253 241 239 238 240 241 237 255 259 258 260 268 260 nan 267 272 276 271 292 321 318 312 316 333 359 6 334 326 328 332 330 331 326 325 327
262 264 264 265 267 286 295 282 261 251 239 239 239 236 235 241 254 257 257 264 271 261 262 269 275 278 283 285 297 299 323 322 353 348 341 336 343 341 333 329 330 318 308
284 269 259 263 258 283 293 281 268 252 244 237 240 241 243 241 249 251 253 259 268 272 268 273 266 267 277 285 285 298 310 312 338 344 344 348 346 339 338 337 343 334 339
284 289 288 283 291 284 291 285 265 251 242 237 236 236 240 247 248 253 252 258 271 277 275 261 264 261 264 269 272 284 289 291 288 305 306 333 336 343 340 343 342 344 339
257 283 282 281 273 264 279 288 281 251 242 232 234 243 246 248 251 249 247 259 265 273 269 272 248 245 256 257 261 264 279 284 292 285 287 300 315 331 335 337 338 337 335
243 237 254 274 267 273 275 285 301 287 255 228 243 256 255 259 250 240 253 252 258 266 267 259 246 248 245 259 262 271 281 282 293 291 285 284 nan nan nan 336 336 333 333
260 255 249 241 260 266 270 267 275 281 292 282 275 274 276 271 253 263 265 271 267 260 259 255 254 256 268 264 278 284 283 291 286 287 292 295 300 nan nan nan nan nan nan
268 267 260 255 254 269 268 267 262 272 280 285 284 284 286 291 288 274 266 266 255 243 250 260 258 258 257 251 254 273 282 286 296 304 301 nan nan nan nan nan nan nan nan
270 266 267 262 260 255 278 286 277 265 268 273 275 278 281 293 283 278 280 272 259 246 250 251 252 256 261 269 276 281 287 290 291 297 300 nan nan nan nan nan nan nan nan
270 274 269 265 256 253 280 289 294 270 260 264 261 262 262 259 273 267 262 265 246 265 258 241 243 254 255 267 274 281 290 293 300 298 295 nan nan nan nan nan nan nan nan
290 276 270 268 261 251 274 282 286 269 261 265 267 266 265 259 259 260 256 252 251 250 262 266 271 272 277 279 291 282 285 291 290 295 nan nan nan nan nan nan nan nan nan
286 287 270 268 264 252 267 268 268 260 258 259 264 268 269 270 275 282 269 266 271 269 270 281 279 280 288 298 294 289 295 298 295 nan nan nan nan nan nan nan nan nan nan
279 264 263 260 264 258 268 280 277 257 257 252 258 267 288 280 282 295 292 284 283 275 279 276 274 280 291 291 300 301 294 303 299 nan nan nan nan nan nan nan nan nan nan